Weather History for Campo, CA

Change the Weather History Date:

Monday, August 19, 2013

  Actual Average Record
Temperature  
Mean Temperature 79 °F 74 °F  
Max Temperature 95 °F 95 °F 105 °F (1950)
Min Temperature 62 °F 53 °F 39 °F (1985)
Degree Days  
Heating Degree Days 0 0  
Month to date heating degree days 2 0  
Since 1 June heating degree days 30 63  
Since 1 July heating degree days 2 7  
Cooling Degree Days 14 9  
Month to date cooling degree days 116 171  
Year to date cooling degree days 563 543  
Since 1 June cooling degree days 536 513  
Growing Degree Days 28 (Base 50)    
Moisture  
Dew Point 50 °F    
Average Humidity 40    
Maximum Humidity 56    
Minimum Humidity 24    
Precipitation  
Precipitation 0.00 in 0.03 in 1.33 in (1984)
Month to date precipitation 0.00 0.44  
Year to date precipitation 5.02 10.91  
Since 1 July precipitation 0.24 0.76  
Snow  
Snow 0.00 in - - ()
Month to date snowfall 0.0  
Year to date snowfall 0.0  
Since 1 July snowfall 0.0  
Snow Depth 0.00 in    
Sea Level Pressure  
Sea Level Pressure 29.84 in    
Wind  
Wind Speed 8 mph (ENE)    
Max Wind Speed 23 mph    
Max Gust Speed 28 mph    
T = Trace of Precipitation, MM = Missing Value Source: NWS Daily Summary

Daily Weather History Graph

Daily Weather History Graph

Search for Another Location

Airport:

Trip Planner

Search our weather history database for the weather conditions in past years. The results will help you decide how hot, cold, wet, or windy it might be!

Date:

Astronomy

Aug. 19, 2013 Rise Set
Actual Time 6:12 AM PDT 7:25 PM PDT
Civil Twilight 5:46 AM PDT 7:51 PM PDT
Nautical Twilight 5:16 AM PDT 8:22 PM PDT
Astronomical Twilight 4:44 AM PDT 8:53 PM PDT
Moon 6:20 PM PDT (8/19) 4:38 AM PDT (8/19)
Length of Visible Light 14h 04m
Length of Day
13h 13m
Waxing Gibbous, 98% of the Moon is Illuminated
Aug 19
Waxing Gibbous
Aug 20
Full
Aug 28
Last Quarter
Sep 5
New
Sep 12
First Quarter

Hourly Weather History & Observations

Time (PDT) Temp. Heat Index Dew Point Humidity Pressure Visibility Wind Dir Wind Speed Gust Speed Precip Events Conditions
12:52 AM 64.9 °F - 48.0 °F 54% 29.83 in - NE 4.6 mph - N/A   Unknown
1:52 AM 64.9 °F - 46.0 °F 50% 29.82 in - Calm Calm - N/A   Unknown
2:52 AM 66.0 °F - 46.0 °F 48% 29.81 in - Calm Calm - N/A   Unknown
3:52 AM 64.9 °F - 45.0 °F 48% 29.80 in - NE 5.8 mph - N/A   Unknown
4:52 AM 64.9 °F - 43.0 °F 45% 29.81 in - Calm Calm - N/A   Unknown
5:52 AM 64.9 °F - 42.1 °F 43% 29.82 in - Calm Calm - N/A   Unknown
6:52 AM 64.0 °F - 43.0 °F 46% 29.85 in - NNE 3.5 mph - N/A   Unknown
7:52 AM 73.0 °F - 46.0 °F 38% 29.86 in - Calm Calm - N/A   Unknown
8:52 AM 82.0 °F - 46.0 °F 28% 29.85 in - Calm Calm - N/A   Unknown
9:15 AM 87.8 °F 86.1 °F 55.4 °F 33% 29.95 in - ENE 16.1 mph 27.6 mph N/A   Unknown
9:52 AM 89.1 °F 87.3 °F 55.9 °F 32% 29.84 in - ENE 23.0 mph 26.5 mph N/A   Unknown
10:52 AM 87.1 °F 85.7 °F 55.9 °F 35% 29.86 in - ENE 12.7 mph - N/A   Unknown
11:52 AM 91.9 °F 89.5 °F 54.0 °F 27% 29.84 in - ENE 15.0 mph - N/A   Unknown
12:52 PM 93.0 °F - 51.1 °F 24% 29.83 in - NE 11.5 mph - N/A   Unknown
1:30 PM 87.8 °F - 50.0 °F 27% 29.95 in - SW 15.0 mph - N/A   Unknown
1:52 PM 89.1 °F - 50.0 °F 26% 29.83 in - SW 12.7 mph - N/A   Unknown
2:52 PM 88.0 °F 85.7 °F 53.1 °F 30% 29.83 in - SW 15.0 mph - N/A   Unknown
3:52 PM 82.9 °F 81.9 °F 54.0 °F 37% 29.82 in - SSW 15.0 mph - N/A   Unknown
4:52 PM 88.0 °F 85.9 °F 54.0 °F 31% 29.81 in - SSW 10.4 mph - N/A   Unknown
5:52 PM 84.0 °F 82.6 °F 54.0 °F 35% 29.81 in - SSW 13.8 mph - N/A   Unknown
6:52 PM 81.0 °F 80.4 °F 53.1 °F 38% 29.81 in - SSW 11.5 mph - N/A   Unknown
7:52 PM 77.0 °F - 52.0 °F 42% 29.82 in - Calm Calm - N/A   Unknown
8:52 PM 73.0 °F - 54.0 °F 51% 29.83 in - North 3.5 mph - N/A   Unknown
9:52 PM 69.1 °F - 51.1 °F 53% 29.84 in - NNE 3.5 mph - N/A   Unknown
10:52 PM 68.0 °F - 51.1 °F 55% 29.85 in - Calm Calm - N/A   Unknown
11:52 PM 68.0 °F - 51.1 °F 55% 29.85 in - Calm Calm - N/A   Unknown